Location: Nawai Rapids
(2.3333°N, 114.1167°E)
Time: 21:23:08
(UTC+00:00)

Daily predictions for brighter satellites

Satellite Brightness Start Highest point End
(mag) Time Altitude Azimuth Time Altitude Azimuth Time Altitude Azimuth
ATLAS 5 CENTAUR R/B 2.0 12:02:47 10° WSW 12:03:58 22° W 12:03:58 22° W
Cosmos 1908 Rocket 3.8 12:07:56 10° N 12:12:13 67° W 12:13:20 46° SSW
Cosmos 1980 Rocket 4.2 12:09:49 10° SW 12:14:36 28° WNW 12:19:21 10° NNW
Maqsat-H 3.3 12:15:40 10° WSW 12:22:19 29° SSW 12:22:19 29° SSW
Cosmos 1420 Rocket 4.4 12:25:11 48° NNE 12:25:11 48° NNE 12:28:53 10° NNE
CSL-04 Rocket 3.9 12:28:43 49° SSW 12:30:00 66° WSW 12:35:26 10° NNW
Cosmos 2285 Rocket 3.9 12:34:44 61° S 12:36:01 87° E 12:42:26 10° NNE
USA 215 3.7 12:38:13 10° NNE 12:44:38 60° NW 12:51:04 10° SW
Atlas Centaur 2 4.1 12:56:31 10° NNW 12:57:39 16° N 12:57:39 16° N
Cosmos 2219 4.2 12:56:38 10° NNW 13:00:30 44° NNW 13:00:30 44° NNW
Cosmos 2297 Rocket 3.5 13:04:52 10° NNW 13:08:41 37° WNW 13:08:41 37° WNW
Cosmos 2227 Rocket 3.6 13:07:53 10° NNW 13:10:59 33° NW 13:10:59 33° NW
SL-16 R/B 4.4 13:34:42 21° WNW 13:34:42 21° WNW 13:38:10 10° NNW
CZ-3C R/B 3.6 13:31:37 10° WNW 13:53:37 45° NNW 13:53:37 45° NNW
Centaur AC-42 4.5 18:50:33 36° N 18:50:44 36° N 19:12:21 10° ENE
Cosmos 1833 Rocket 4.3 19:30:45 29° ENE 19:30:45 29° ENE 19:34:18 10° NE
USA 281 4.0 19:33:36 25° SE 19:37:09 46° ENE 19:43:21 10° N
Cosmos 2082 Rocket 4.4 19:39:08 16° ESE 19:40:26 18° ESE 19:44:03 10° ENE
COSMOS 2406 4.0 19:48:38 47° ENE 19:48:38 47° ENE 19:53:08 10° NNE
Mugunghwa Rocket 4.3 19:55:10 64° N 19:55:10 64° N 20:01:53 10° NE
ARIANE 5 R/B 3.4 20:04:08 59° SSE 20:04:08 59° SSE 20:26:22 10° E
FENGYUN 3A 3.8 20:05:10 10° NNE 20:09:56 70° N 20:09:56 70° N
Cosmos 44 3.9 20:13:11 52° N 20:13:11 52° N 20:17:05 10° NNE
ARIANE 5 R/B 4.1 20:17:28 65° W 20:18:26 90° NNW 20:38:13 10° E
Alouette 2 Rocket 4.3 20:15:21 10° N 20:19:43 70° E 20:26:21 10° SSE
Gbstr 26 Del rocket 3.5 20:23:42 53° NNE 20:23:42 53° NNE 20:27:29 10° NNE
Cosmos 1484 Rocket 3.9 20:21:25 10° NNE 20:23:47 38° NNE 20:23:47 38° NNE
ALOS 2.9 20:26:27 10° N 20:29:52 42° NNW 20:29:52 42° NNW
Stardust Del rocket 3.5 20:33:04 73° NNW 20:33:04 73° NNW 20:36:13 10° ENE
CZ-2C R/B 4.3 20:29:32 10° NNW 20:30:49 16° NW 20:30:49 16° NW
Cosmos 1328 Rocket 3.7 20:29:34 10° N 20:33:11 59° NNW 20:33:11 59° NNW
CZ-2C R/B 3.4 20:36:09 13° N 20:36:09 13° N 20:36:58 10° N
METEOR-M 4.0 20:31:29 10° N 20:36:47 73° WNW 20:38:04 51° SW
Centaur AC-112 3.3 20:35:51 48° WNW 20:36:48 58° NNW 20:50:12 10° ENE
SL-08 R/B 4.3 20:40:25 31° NW 20:40:25 31° NW 20:43:00 10° NNW
Meteor 1-31 Rocket 4.5 20:35:38 10° NE 20:39:00 30° ESE 20:41:40 14° SSE
GPS 2-14 Rocket1 4.0 20:41:16 27° SSE 20:41:16 27° SSE 20:44:10 10° E
BLOCK DM-SL R/B 3.6 20:39:22 44° WSW 20:41:06 71° S 20:44:56 10° E
Sich 1 3.2 20:41:56 31° S 20:43:52 69° E 20:48:09 10° N
SL-08 ROCKET BODY 4.4 20:40:41 15° S 20:45:44 81° E 20:51:36 10° N
ARIANE 5 R/B 3.6 20:46:41 33° SSW 20:48:42 45° SSE 21:15:06 10° E
ARIANE 5 DEB (SYLDA 5A) 2.6 20:49:11 39° SSE 20:49:11 39° SSE 20:53:12 10° E
Meteor 2-6 Rocket 4.2 20:44:00 10° N 20:49:46 88° E 20:55:22 10° S
ADEOS 4.3 20:44:49 10° NNE 20:49:51 50° ESE 20:54:53 10° S
Cosmos 1818 3.4 20:49:14 34° SSW 20:51:36 84° WNW 20:57:01 10° NNE
Ariane 44LP R/B 4.3 20:50:42 41° SW 20:52:02 56° S 21:02:47 10° E
Fermi 3.6 20:51:59 59° W 20:52:35 71° SSW 20:56:38 10° ESE
S3M 4.4 20:46:56 10° NNW 20:52:39 40° W 20:54:56 30° SW
NOSS 3-4 (A) 3.9 20:56:51 32° WSW 20:58:30 38° WNW 21:03:49 10° N
Cosmos 1515 Rocket 3.4 20:54:13 10° N 20:58:37 73° W 21:03:04 10° S
NOSS 3-4 (C) 3.8 20:56:56 32° WSW 20:58:38 39° WNW 21:03:58 10° N
Cosmos 1633 Rocket 4.0 20:59:00 10° SSE 21:03:13 48° E 21:07:26 10° NNE
Atlas 2A Centaur Rocket 3.3 21:06:33 18° WNW 21:07:25 20° NW 21:09:25 10° NNE
ATLAS 2AS CENTAUR R/B 2.9 21:02:12 17° SSW 21:08:24 80° WNW 21:16:17 10° NNE
Cosmos 2298 Rocket 4.2 21:04:58 10° NNW 21:10:05 50° WSW 21:15:13 10° S
Cosmos 1833 Rocket 4.2 21:12:31 16° WNW 21:12:54 16° WNW 21:16:16 10° NW
Cosmos 1812 3.7 21:10:32 10° NW 21:13:40 26° W 21:13:40 26° W
H-2A R/B 3.2 21:10:09 10° NNE 21:13:57 62° E 21:17:44 10° S
Cosmos 1271 Rocket 4.3 21:14:45 10° NW 21:16:24 17° WNW 21:16:24 17° WNW
Cosmos 1680 Rocket 3.9 21:15:14 10° S 21:20:28 68° ESE 21:25:43 10° NNE
USA 281 4.3 21:20:22 18° WSW 21:21:20 18° WSW 21:25:35 10° WNW
Cosmos 2082 Rocket 3.0 21:21:03 18° WSW 21:24:12 31° WNW 21:29:05 10° NNW
CZ-4B R/B 3.7 21:24:05 10° NNE 21:28:31 60° ESE 21:32:53 10° S
Envisat 3.0 21:24:12 10° NNE 21:29:17 85° ESE 21:34:22 10° S
ARIANE 5 R/B 4.0 21:17:15 14° WSW 21:29:47 60° S 21:33:55 10° E
SWIFT 4.4 21:28:36 10° SSW 21:31:22 17° SSE 21:34:07 10° ESE
CZ-3 Stage 3 1.5 21:29:59 17° SW 21:31:48 63° SE 21:38:45 10° ENE
YAOGAN 6 2.4 21:30:25 10° N 21:33:51 80° WNW 21:37:20 10° SSW
BLOCK DM-SL R/B 3.9 21:29:11 10° W 21:43:13 75° S 21:47:48 10° E
Cosmos 1125 Rocket 4.5 21:43:06 10° NW 21:47:25 26° WSW 21:51:46 10° SSW
Cosmos 1470 Rocket 3.6 21:45:54 10° S 21:50:21 73° W 21:54:49 10° N
MOS 1 Rocket 3.9 21:50:17 10° SSW 21:54:16 30° WSW 21:58:05 10° NW
Cosmos 2228 Rocket 3.7 21:52:00 10° NNW 21:56:02 35° W 22:00:03 10° SSW
GPS 2-15 Rocket1 3.4 21:51:13 10° WSW 21:56:08 68° NNW 22:01:01 10° ENE
Nadezhda 1 Rocket 4.3 21:51:55 10° N 21:58:08 77° E 22:04:30 10° S
Ariane H10+ 4.2 21:39:40 10° W 22:08:26 87° S 22:15:52 10° E
